Location: Newark
(51.3318°N, 0.0053°E)
Time: 07:22:36
(UTC+00:00)

DIWATA 2B (PO-101) - Pass Details

Date: 08 July 2022
Orbit: 583 x 598 km, 98.0° (Epoch: 08 August)

Event Time Altitude Azimuth Distance (km) Brightness Sun altitude
Exits shadow 01:01:57 - 136° (SE) 2,065 ? -15.1°
Reaches altitude 10° 01:02:16 10° 135° (SE) 1,939 ? -15.1°
Maximum altitude 01:06:10 38° 67° (ENE) 925 ? -15.0°
Drops below altitude 10° 01:10:05 10° 359° (N) 1,950 ? -14.8°
Sets 01:12:22 0° 352° (N) 2,856 ? -14.7°
